Location: The Saddle
(36.8333°N, 80.3417°W)
Time: 09:41:13
(UTC-05:00)

S-56A Canister/Altair - Pass Details

Date: 09 December 2023
Orbit: 640 x 2488 km, 38.9° (Epoch: 25 February)

Event Time Altitude Azimuth Distance (km) Brightness Sun altitude
Rises 12:12:15 0° 268° (W) 3,307 10.8 30.3°
Reaches altitude 10° 12:14:56 10° 270° (W) 2,221 10.0 30.3°
Maximum altitude 12:19:48 70° 355° (N) 690 7.5 30.3°
Drops below altitude 10° 12:24:15 10° 79° (E) 2,036 9.7 30.3°
Sets 12:26:37 0° 82° (E) 3,004 10.5 30.2°
